カタログに戻る

DMSP 5D-2 F13 DEB

運用中SSO
NORAD 42265·DEBRIS·🇺🇸 United States

打ち上げ Mar 24, 1995 から Vandenberg Space Force Base

Loading…

次のパス (今後24時間)

TLE

最新Source: Space-Track

元期: Sep 13, 2026, 08:58 UTC

1 42265U 95015GF  26256.37401749  .00002911  00000-0  94666-3 0  9992
2 42265  98.6727 296.4211 0005821 114.7162 245.4632 14.39554183561295

AllMySatでDMSP 5D-2 F13 DEBをリアルタイム追跡

Download on the App Store